Weather History for KRSN - March, 2013

Change the Weather History Date:

Thursday, March 21, 2013

  Actual Average (KMLU) Record (KMLU)
Temperature  
Mean Temperature 46 °F 59 °F  
Max Temperature 54 °F 71 °F 88 °F (1935)
Min Temperature 38 °F 47 °F 20 °F (1965)
Degree Days  
Heating Degree Days 19 7  
Month to date heating degree days 193  
Since 1 July heating degree days 2087  
Cooling Degree Days 0 1  
Month to date cooling degree days 19  
Year to date cooling degree days 30  
Moisture  
Dew Point 28 °F    
Average Humidity 49    
Maximum Humidity 95    
Minimum Humidity 23    
Precipitation  
Precipitation 0.00 in 0.14 in 5.48 in (1955)
Month to date precipitation 3.28  
Year to date precipitation 12.92  
Snow  
Snow 0.00 in - - ()
Month to date snowfall  
Since 1 July snowfall  
Snow Depth -    
Sea Level Pressure  
Sea Level Pressure 30.00 in    
Wind  
Wind Speed 3 mph (East)    
Max Wind Speed 10 mph    
Max Gust Speed 17 mph    
Visibility 10 miles    
Events Rain    
T = Trace of Precipitation, MM = Missing Value Source: NWS Daily Summary

Daily Weather History Graph

Daily Weather History Graph

Search for Another Location

Airport or City:

Trip Planner

Search our weather history database for the weather conditions in past years. The results will help you decide how hot, cold, wet, or windy it might be!

Date:

Astronomy

Mar. 21, 2013 Rise Set
Actual Time 7:12 AM CDT 7:22 PM CDT
Civil Twilight 6:47 AM CDT 7:47 PM CDT
Nautical Twilight 6:19 AM CDT 8:16 PM CDT
Astronomical Twilight 5:50 AM CDT 8:45 PM CDT
Moon 2:08 PM CDT (3/21) 3:18 AM CDT (3/21)
Length of Visible Light 12h 59m
Length of Day
12h 10m
Waxing Gibbous, 69% of the Moon is Illuminated
Mar 21
Waxing Gibbous
Mar 27
Full
Apr 2
Last Quarter
Apr 10
New
Apr 18
First Quarter

Hourly Weather History & Observations

Time (CDT) Temp. Windchill Dew Point Humidity Pressure Visibility Wind Dir Wind Speed Gust Speed Precip Events Conditions
12:15 AM 39.4 °F - 33.3 °F 79% 30.11 in 10.0 mi Calm Calm - N/A   Clear
12:35 AM 41.2 °F - 34.0 °F 76% 30.11 in 10.0 mi Calm Calm - N/A   Clear
1:15 AM 39.4 °F - 34.9 °F 84% 30.11 in 10.0 mi Calm Calm - N/A   Clear
1:35 AM 40.1 °F - 34.9 °F 82% 30.11 in 10.0 mi Calm Calm - N/A   Clear
1:55 AM 39.9 °F - 35.1 °F 83% 30.10 in 10.0 mi Calm Calm - N/A   Clear
2:15 AM 39.4 °F - 35.6 °F 86% 30.10 in 10.0 mi Calm Calm - N/A   Clear
2:35 AM 38.5 °F - 36.5 °F 93% 30.10 in 10.0 mi Calm Calm - N/A   Clear
2:55 AM 39.2 °F - 36.0 °F 88% 30.10 in 10.0 mi Calm Calm - N/A   Clear
3:15 AM 38.3 °F - 37.0 °F 95% 30.10 in 10.0 mi Calm Calm - N/A   Clear
3:35 AM 39.9 °F - 35.6 °F 85% 30.09 in 10.0 mi Calm Calm - N/A   Clear
3:55 AM 43.9 °F - 32.0 °F 63% 30.10 in 10.0 mi Calm Calm - N/A   Clear
4:15 AM 43.7 °F 42.1 °F 31.8 °F 63% 30.09 in 10.0 mi NE 3.5 mph - N/A   Clear
4:35 AM 42.1 °F 40.2 °F 32.5 °F 69% 30.10 in 10.0 mi NE 3.5 mph - N/A   Clear
4:55 AM 43.7 °F 42.1 °F 30.7 °F 60% 30.10 in 10.0 mi ENE 3.5 mph - N/A   Clear
5:15 AM 43.3 °F 40.7 °F 31.1 °F 62% 30.09 in 10.0 mi ENE 4.6 mph - N/A   Clear
5:35 AM 43.2 °F - 30.9 °F 62% 30.09 in 10.0 mi Calm Calm - N/A   Clear
5:55 AM 42.8 °F - 31.1 °F 63% 30.10 in 10.0 mi Calm Calm - N/A   Clear
6:15 AM 42.8 °F - 31.3 °F 64% 30.09 in 10.0 mi Calm Calm - N/A   Clear
6:35 AM 42.3 °F 40.5 °F 31.1 °F 65% 30.10 in 10.0 mi East 3.5 mph - N/A   Clear
6:55 AM 42.3 °F 40.5 °F 30.9 °F 64% 30.10 in 10.0 mi East 3.5 mph - N/A   Clear
7:15 AM 41.9 °F - 30.9 °F 65% 30.10 in 10.0 mi Calm Calm - N/A   Clear
7:35 AM 41.9 °F - 30.7 °F 65% 30.10 in 10.0 mi Calm Calm - N/A   Clear
7:55 AM 41.9 °F 39.0 °F 28.9 °F 60% 30.10 in 10.0 mi East 4.6 mph - N/A   Clear
8:15 AM 41.5 °F 39.6 °F 27.9 °F 58% 30.10 in 10.0 mi East 3.5 mph - N/A   Clear
8:35 AM 43.7 °F 40.3 °F 26.8 °F 51% 30.09 in 10.0 mi East 5.8 mph - N/A   Clear
8:55 AM 45.1 °F 42.0 °F 22.6 °F 41% 30.09 in 10.0 mi East 5.8 mph - N/A   Clear
9:15 AM 46.8 °F - 20.1 °F 35% 30.09 in 10.0 mi East 8.1 mph - N/A   Clear
9:35 AM 48.6 °F - 17.8 °F 29% 30.09 in 10.0 mi ESE 9.2 mph 16.1 mph N/A   Clear
9:55 AM 48.2 °F - 15.1 °F 27% 30.09 in 10.0 mi East 10.4 mph 17.3 mph N/A   Scattered Clouds
10:15 AM 48.4 °F - 15.4 °F 27% 30.09 in 10.0 mi East 9.2 mph - N/A   Scattered Clouds
10:35 AM 48.9 °F - 15.8 °F 27% 30.10 in 10.0 mi East 6.9 mph - N/A   Clear
10:55 AM 50.2 °F - 13.8 °F 23% 30.08 in 10.0 mi ESE 10.4 mph - N/A   Clear
11:15 AM 50.7 °F - 15.4 °F 25% 30.08 in 10.0 mi East 5.8 mph - N/A   Scattered Clouds
11:35 AM 52.0 °F - 16.2 °F 24% 30.06 in 10.0 mi ESE 9.2 mph - N/A   Mostly Cloudy
11:55 AM 51.3 °F - 15.1 °F 24% 30.05 in 10.0 mi East 8.1 mph - N/A   Mostly Cloudy
12:15 PM 51.6 °F - 17.1 °F 26% 30.04 in 10.0 mi East 6.9 mph - N/A   Overcast
12:35 PM 51.6 °F - 18.1 °F 27% 30.02 in 10.0 mi SE 8.1 mph - N/A   Overcast
12:55 PM 50.9 °F - 18.7 °F 28% 30.02 in 10.0 mi SE 6.9 mph - N/A   Overcast
1:15 PM 51.1 °F - 18.7 °F 28% 30.02 in 10.0 mi ESE 4.6 mph - N/A   Overcast
1:35 PM 51.6 °F - 19.2 °F 28% 30.01 in 10.0 mi SE 3.5 mph - N/A   Overcast
1:55 PM 52.0 °F - 19.9 °F 28% 29.99 in 10.0 mi East 3.5 mph - N/A   Overcast
2:15 PM 52.0 °F - 23.2 °F 33% 29.98 in 10.0 mi East 4.6 mph - N/A   Overcast
2:35 PM 50.9 °F - 26.8 °F 39% 29.96 in 10.0 mi East 5.8 mph - N/A Rain Light Rain
2:55 PM 50.9 °F - 28.6 °F 42% 29.94 in 10.0 mi East 5.8 mph - N/A   Overcast
3:15 PM 51.8 °F - 27.5 °F 39% 29.93 in 10.0 mi East 5.8 mph - N/A   Overcast
3:35 PM 52.9 °F - 24.4 °F 33% 29.93 in 10.0 mi ENE 8.1 mph - N/A   Overcast
3:55 PM 53.1 °F - 24.4 °F 33% 29.91 in 10.0 mi East 8.1 mph - N/A   Overcast
4:15 PM 53.6 °F - 25.5 °F 34% 29.91 in 10.0 mi East 6.9 mph - N/A   Overcast
4:35 PM 54.0 °F - 25.0 °F 33% 29.90 in 10.0 mi ESE 6.9 mph - N/A   Overcast
4:55 PM 54.0 °F - 26.2 °F 34% 29.90 in 10.0 mi ESE 5.8 mph - N/A   Overcast
5:15 PM 53.6 °F - 28.8 °F 39% 29.88 in 10.0 mi East 4.6 mph - N/A   Overcast
5:35 PM 54.5 °F - 27.0 °F 35% 29.87 in 10.0 mi East 8.1 mph - N/A   Overcast
5:55 PM 54.1 °F - 27.3 °F 36% 29.87 in 10.0 mi East 4.6 mph - N/A   Overcast
6:15 PM 54.3 °F - 27.5 °F 36% 29.86 in 10.0 mi East 8.1 mph - N/A   Overcast
6:35 PM 54.0 °F - 28.6 °F 38% 29.86 in 10.0 mi East 4.6 mph - N/A   Overcast
6:55 PM 52.7 °F - 32.0 °F 45% 29.85 in 10.0 mi ENE 5.8 mph - N/A   Mostly Cloudy
7:15 PM 51.3 °F - 33.1 °F 50% 29.85 in 10.0 mi ENE 3.5 mph - N/A   Mostly Cloudy
7:35 PM 50.9 °F - 33.8 °F 52% 29.85 in 10.0 mi ENE 5.8 mph - N/A   Overcast
7:55 PM 50.9 °F - 33.8 °F 52% 29.83 in 10.0 mi East 5.8 mph - N/A   Overcast
8:15 PM 51.1 °F - 33.1 °F 50% 29.84 in 10.0 mi East 4.6 mph - N/A   Overcast
8:35 PM 51.4 °F - 32.4 °F 48% 29.85 in 10.0 mi Calm Calm - N/A   Overcast
8:55 PM 51.1 °F - 32.5 °F 49% 29.85 in 10.0 mi East 3.5 mph - N/A   Overcast
9:15 PM 51.3 °F - 32.4 °F 48% 29.86 in 10.0 mi East 3.5 mph - N/A   Overcast
9:55 PM 50.9 °F - 33.4 °F 51% 29.86 in 10.0 mi Calm Calm - N/A   Overcast
10:15 PM 50.5 °F - 33.8 °F 53% 29.85 in 10.0 mi ESE 3.5 mph - N/A   Overcast
10:35 PM 51.3 °F - 32.0 °F 48% 29.85 in 10.0 mi SE 4.6 mph - N/A   Overcast
10:55 PM 52.9 °F - 29.5 °F 41% 29.84 in 10.0 mi ESE 6.9 mph - N/A   Overcast
11:15 PM 53.6 °F - 29.3 °F 39% 29.83 in 10.0 mi ESE 5.8 mph - N/A   Overcast
11:35 PM 53.6 °F - 30.2 °F 41% 29.83 in 10.0 mi ESE 5.8 mph - N/A   Overcast
11:55 PM 54.1 °F - 31.1 °F 41% 29.83 in 10.0 mi ESE 4.6 mph - N/A   Overcast